SR5NLK-1 Weather Reports


Display with metric or nautical units.
time (UTC)temp
F
wind
direction
speed
MPH
gust
MPH
rain 1hr
in
rain 24hr
in
rain mn
in
humidity
%
barometer
mb
20260904195438 67 247 15.0 15.0 0.04 0.06 0.00 81 1072.2
20260904194938 68 247 8.0 14.0 0.04 0.06 0.00 79 1058.3
20260904194438 69 270 7.0 16.0 0.04 0.06 0.00 77 1064.2
20260904193938 70 270 6.0 16.0 0.02 0.04 0.00 74 1055.9
20260904193438 70 202 5.0 14.0 0.02 0.04 0.00 72 1066.8
20260904193337 71 180 8.0 14.0 0.02 0.04 0.00 72 1060.7
20260904192938 71 202 8.0 17.0 0.00 0.02 0.00 71 1054.8
20260904192438 72 202 11.0 20.0 0.00 0.02 0.00 69 1056.0
20260904191938 73 247 18.0 18.0 0.00 0.02 0.00 68 1061.1
20260904191438 73 225 15.0 20.0 0.00 0.02 0.00 67 1099.9
20260904190938 73 202 17.0 26.0 0.00 0.02 0.00 67 1080.0
20260904190438 72 225 11.0 26.0 0.00 0.02 0.00 67 1073.7
20260904190038 72 225 13.0 26.0 0.00 0.02 0.00 67 1051.6
20260904185938 72 247 26.0 26.0 0.00 0.02 0.00 67 1071.0
20260904185438 72 180 5.0 19.0 0.00 0.02 0.00 67 1070.5
20260904184939 72 225 14.0 17.0 0.00 0.02 0.00 67 1062.7
20260904184438 72 202 12.0 18.0 0.00 0.02 0.00 68 1061.6
20260904183939 72 225 19.0 19.0 0.00 0.02 0.00 68 1061.0
20260904183438 71 202 15.0 19.0 0.00 0.02 0.00 68 1049.9
20260904182939 71 202 8.0 14.0 0.00 0.02 0.00 68 1018.3
20260904182738 71 225 9.0 14.0 0.00 0.02 0.00 68 1024.5
20260904182439 71 180 5.0 15.0 0.00 0.02 0.00 68 1040.6
20260904181939 71 225 6.0 12.0 0.00 0.02 0.00 68 1022.7
20260904181439 71 180 12.0 13.0 0.00 0.02 0.00 68 1053.2
20260904180939 71 202 8.0 13.0 0.00 0.02 0.00 68 1056.5
20260904180439 71 180 6.0 13.0 0.00 0.02 0.00 68 1053.1
20260904175939 71 180 5.0 18.0 0.00 0.02 0.00 68 1059.5
20260904175438 71 202 11.0 13.0 0.00 0.02 0.00 68 1053.6
20260904174939 71 202 2.0 15.0 0.00 0.02 0.00 68 1042.5
20260904174439 71 202 9.0 16.0 0.00 0.02 0.00 68 1055.7
20260904173939 71 157 10.0 14.0 0.00 0.02 0.00 67 1046.9
20260904173439 71 225 5.0 13.0 0.00 0.02 0.00 67 1031.2
20260904172939 71 180 8.0 15.0 0.00 0.02 0.00 67 1063.8
20260904172439 71 157 4.0 17.0 0.00 0.02 0.00 66 1064.5
20260904172138 71 180 15.0 17.0 0.00 0.02 0.00 66 1045.4
20260904171939 71 180 12.0 17.0 0.00 0.02 0.00 66 1049.8
20260904171439 72 202 9.0 19.0 0.00 0.02 0.00 65 1060.0
20260904170939 72 135 9.0 16.0 0.00 0.02 0.00 65 1039.0
20260904170439 72 202 10.0 17.0 0.00 0.02 0.00 65 1048.8
20260904165939 72 180 10.0 15.0 0.00 0.02 0.00 64 1049.9
20260904165439 72 202 2.0 17.0 0.00 0.02 0.00 64 1037.3
20260904164939 72 180 12.0 18.0 0.00 0.02 0.00 64 1042.7
20260904164838 72 180 5.0 18.0 0.00 0.02 0.00 63 1008.0
20260904164439 72 225 10.0 18.0 0.00 0.02 0.00 63 1059.5
20260904163939 73 180 15.0 17.0 0.00 0.02 0.00 63 1096.8
20260904163439 73 202 10.0 17.0 0.00 0.02 0.00 63 1047.7
20260904162939 73 202 15.0 19.0 0.00 0.02 0.00 62 1065.5
20260904162439 73 225 8.0 17.0 0.00 0.02 0.00 62 1048.5
20260904161939 73 225 10.0 18.0 0.00 0.02 0.00 61 1053.2
20260904161538 73 202 7.0 17.0 0.00 0.02 0.00 60 1042.2
20260904161439 73 202 16.0 17.0 0.00 0.02 0.00 60 1031.2
20260904160939 74 202 17.0 18.0 0.00 0.02 0.00 60 1055.1
20260904160439 74 202 5.0 11.0 0.00 0.02 0.00 59 1018.4
20260904155939 74 157 4.0 19.0 0.00 0.02 0.00 59 1072.4
20260904155439 74 202 9.0 17.0 0.00 0.02 0.00 58 994.1
20260904154939 75 247 12.0 15.0 0.00 0.02 0.00 58 1061.8
20260904154439 75 22 3.0 19.0 0.00 0.02 0.00 58 1030.0
20260904154238 75 180 8.0 19.0 0.00 0.02 0.00 57 1066.0
20260904153939 75 180 9.0 17.0 0.00 0.02 0.00 57 1065.8
20260904153439 75 202 11.0 11.0 0.00 0.02 0.00 57 1036.6
20260904152939 75 180 5.0 12.0 0.00 0.02 0.00 56 1059.5
20260904152439 75 247 10.0 15.0 0.00 0.02 0.00 56 1057.2
20260904151939 75 202 12.0 16.0 0.00 0.02 0.00 55 1037.4
20260904151439 76 247 11.0 19.0 0.00 0.02 0.00 55 1070.0
20260904150938 76 247 5.0 15.0 0.00 0.02 0.00 54 1059.5
20260904150439 77 157 12.0 19.0 0.00 0.02 0.00 54 1033.5
20260904145939 78 225 7.0 14.0 0.00 0.02 0.00 53 1042.3
20260904145439 78 180 8.0 16.0 0.00 0.02 0.00 53 1073.6
20260904144939 78 225 13.0 13.0 0.00 0.02 0.00 54 1068.5
20260904144439 77 180 8.0 13.0 0.00 0.02 0.00 54 1054.4
20260904143940 77 202 7.0 12.0 0.00 0.02 0.00 54 1051.6
20260904143638 77 225 8.0 15.0 0.00 0.02 0.00 54 1062.4
20260904143439 77 157 12.0 18.0 0.00 0.02 0.00 54 1028.5
20260904142939 77 202 8.0 15.0 0.00 0.02 0.00 54 1046.9
20260904142439 77 202 13.0 16.0 0.00 0.02 0.00 54 1053.2
20260904141939 77 247 4.0 17.0 0.00 0.02 0.00 53 1059.6
20260904141439 77 225 11.0 19.0 0.00 0.02 0.00 53 1075.1
20260904140939 77 225 12.0 13.0 0.00 0.02 0.00 54 1040.2
20260904140439 77 247 7.0 14.0 0.00 0.02 0.00 54 1058.0
20260904140338 77 202 4.0 14.0 0.00 0.02 0.00 54 1065.7
20260904135439 77 157 12.0 14.0 0.00 0.02 0.00 54 1065.9
20260904134939 77 202 9.0 15.0 0.00 0.02 0.00 53 1053.3
20260904134439 78 225 7.0 17.0 0.00 0.02 0.00 53 1041.2
20260904133939 78 202 10.0 17.0 0.00 0.02 0.00 53 1046.9
20260904133439 78 202 12.0 15.0 0.00 0.02 0.00 52 1031.1
20260904133038 78 225 8.0 15.0 0.00 0.02 0.00 52 1034.3
20260904132939 78 202 8.0 15.0 0.00 0.02 0.00 52 1010.3
20260904132439 78 292 16.0 16.0 0.00 0.02 0.00 52 1055.4
20260904131939 78 247 6.0 18.0 0.00 0.02 0.00 52 1034.3
20260904131439 79 180 12.0 14.0 0.00 0.02 0.00 51 1055.7
20260904130939 78 202 5.0 15.0 0.00 0.02 0.00 52 1035.2
20260904130439 78 225 11.0 13.0 0.00 0.02 0.00 52 1020.0
20260904125939 78 180 7.0 18.0 0.00 0.02 0.00 52 1040.6
20260904125738 78 180 5.0 18.0 0.00 0.02 0.00 52 1028.9
20260904125439 78 225 4.0 15.0 0.00 0.02 0.00 51 1055.4
20260904124939 78 180 10.0 14.0 0.00 0.02 0.00 51 1044.3
20260904124440 78 247 9.0 14.0 0.00 0.02 0.00 51 1044.9
20260904123939 78 292 3.0 17.0 0.00 0.02 0.00 51 1049.4
20260904123439 78 270 14.0 15.0 0.00 0.02 0.00 51 1050.1
20260904122939 78 225 7.0 19.0 0.00 0.02 0.00 51 1035.4
20260904122438 78 270 10.0 18.0 0.00 0.02 0.00 51 1035.4
20260904121939 78 247 21.0 22.0 0.00 0.02 0.00 50 1040.6
20260904121440 78 225 15.0 19.0 0.00 0.02 0.00 51 1059.3
20260904120939 78 157 4.0 16.0 0.00 0.02 0.00 51 1044.7
20260904120439 78 270 13.0 19.0 0.00 0.02 0.00 50 1030.9
20260904115939 78 270 11.0 18.0 0.00 0.02 0.00 50 1024.8
20260904115439 78 292 9.0 16.0 0.00 0.02 0.00 51 1031.2
20260904115138 78 247 8.0 17.0 0.00 0.02 0.00 51 1059.3
20260904114939 78 202 12.0 17.0 0.00 0.02 0.00 51 1045.5
20260904114439 78 202 10.0 17.0 0.00 0.02 0.00 51 1037.5
20260904113939 78 247 17.0 20.0 0.00 0.02 0.00 51 1034.3
20260904113439 78 225 14.0 19.0 0.00 0.02 0.00 51 1040.6
20260904112939 77 225 19.0 22.0 0.00 0.02 0.00 51 1021.1
20260904112439 78 225 20.0 20.0 0.00 0.02 0.00 50 1043.7
20260904111939 79 270 14.0 17.0 0.00 0.02 0.00 50 1047.3
20260904111838 80 270 7.0 17.0 0.00 0.02 0.00 50 1020.1
20260904111439 80 270 8.0 19.0 0.00 0.02 0.00 51 1052.8
20260904110939 80 247 16.0 21.0 0.00 0.02 0.00 52 1064.3
20260904110439 78 270 4.0 19.0 0.00 0.02 0.00 53 1040.3
20260904105939 78 247 10.0 25.0 0.00 0.02 0.00 53 1034.3
20260904105439 78 247 14.0 22.0 0.00 0.02 0.00 53 1046.9
20260904104939 78 270 14.0 18.0 0.00 0.02 0.00 55 1034.1
20260904104538 77 180 8.0 18.0 0.00 0.02 0.00 55 1040.7
20260904104439 77 202 14.0 18.0 0.00 0.02 0.00 55 1052.3
20260904103939 77 247 7.0 20.0 0.00 0.02 0.00 54 1054.2
20260904103439 78 247 15.0 19.0 0.00 0.02 0.00 54 1040.6
20260904102939 78 202 12.0 23.0 0.00 0.02 0.00 55 1046.5
20260904102439 78 247 18.0 21.0 0.00 0.02 0.00 56 1041.5
20260904101939 77 157 8.0 17.0 0.00 0.02 0.00 58 1040.6
20260904101439 77 270 8.0 17.0 0.00 0.02 0.00 58 1034.3
20260904101238 77 180 4.0 19.0 0.00 0.02 0.00 58 1028.0
20260904100939 77 247 4.0 21.0 0.00 0.02 0.00 58 1034.3
20260904100439 77 202 9.0 13.0 0.00 0.02 0.00 58 1056.5
20260904095939 77 0 9.0 17.0 0.00 0.02 0.00 58 1018.5
20260904095439 76 202 11.0 16.0 0.00 0.02 0.00 60 1037.5
20260904094939 76 247 12.0 14.0 0.00 0.02 0.00 61 1028.0
20260904094439 75 270 11.0 15.0 0.00 0.02 0.00 60 1048.7
20260904093939 76 225 10.0 19.0 0.00 0.02 0.00 60 1018.5
20260904093440 76 270 7.0 17.0 0.00 0.02 0.00 61 1034.3
20260904092939 75 225 12.0 16.0 0.00 0.02 0.00 62 1037.5
20260904092439 75 225 16.0 18.0 0.00 0.02 0.00 62 1028.0
20260904091939 75 270 13.0 14.0 0.00 0.02 0.00 63 1043.8
20260904091439 74 112 4.0 17.0 0.00 0.02 0.00 63 1021.6
20260904090940 74 157 7.0 19.0 0.00 0.02 0.00 64 1034.3
20260904090639 73 225 8.0 18.0 0.00 0.02 0.00 64 1018.5
20260904090440 73 202 12.0 15.0 0.00 0.02 0.00 64 1024.9
20260904085940 73 270 15.0 21.0 0.00 0.02 0.00 64 1046.9
20260904085439 73 202 15.0 17.0 0.00 0.02 0.00 63 1021.6
20260904084939 74 202 12.0 21.0 0.00 0.02 0.00 62 1015.4
20260904084440 75 157 10.0 21.0 0.00 0.02 0.00 62 1021.6
20260904083940 76 225 8.0 15.0 0.00 0.02 0.00 62 1043.7
20260904083440 76 225 7.0 14.0 0.00 0.02 0.00 64 1043.8
20260904083339 76 180 8.0 14.0 0.00 0.02 0.00 64 1046.9
20260904082940 76 247 9.0 16.0 0.00 0.02 0.00 65 1040.6
20260904082440 75 202 16.0 16.0 0.00 0.02 0.00 66 1028.0
20260904081940 74 247 9.0 14.0 0.00 0.02 0.00 68 1021.6
20260904081440 73 270 13.0 13.0 0.00 0.02 0.00 70 1012.2
20260904080440 71 270 6.0 13.0 0.00 0.02 0.00 73 1018.5
20260904080039 70 247 8.0 16.0 0.00 0.02 0.00 73 1021.7
20260904075940 70 225 8.0 19.0 0.00 0.02 0.00 73 1037.4
20260904075440 70 247 14.0 18.0 0.00 0.02 0.00 73 1034.3
20260904074940 70 247 6.0 15.0 0.00 0.02 0.00 74 1015.4
20260904074440 69 225 8.0 11.0 0.00 0.02 0.00 74 1046.9
20260904073440 69 202 6.0 8.0 0.00 0.02 0.00 74 1028.0
20260904072940 69 112 3.0 14.0 0.00 0.02 0.00 74 1040.6
20260904072739 69 247 9.0 14.0 0.00 0.02 0.00 74 1028.0
20260904072440 69 202 7.0 17.0 0.00 0.02 0.00 74 1015.4
20260904071940 70 202 8.0 13.0 0.00 0.02 0.00 73 1031.1
20260904071440 71 270 9.0 17.0 0.00 0.02 0.00 74 1040.6
20260904070940 71 202 3.0 10.0 0.00 0.02 0.00 76 1046.8
20260904070440 70 225 7.0 10.0 0.00 0.02 0.00 79 1034.3
20260904065940 69 202 8.0 9.0 0.00 0.02 0.00 79 1034.3
20260904065439 68 202 7.0 11.0 0.00 0.02 0.00 79 1043.8
20260904064940 68 157 2.0 10.0 0.00 0.02 0.00 81 1043.8
20260904064440 68 225 3.0 8.0 0.00 0.02 0.00 82 1028.0
20260904063940 67 225 2.0 8.0 0.00 0.02 0.00 83 1046.9
20260904063440 66 270 8.0 10.0 0.00 0.02 0.00 84 1037.5
20260904062940 66 202 4.0 9.0 0.00 0.02 0.00 84 1031.2
20260904062440 65 202 4.0 8.0 0.00 0.02 0.00 84 1043.8
20260904062139 65 225 4.0 8.0 0.00 0.02 0.00 84 1046.9
20260904061940 65 225 6.0 8.0 0.00 0.02 0.00 84 1043.7
20260904060940 64 225 4.0 10.0 0.00 0.02 0.00 85 1037.5
20260904060440 64 202 5.0 11.0 0.00 0.02 0.00 85 1056.4
20260904055940 64 202 10.0 10.0 0.00 0.02 0.00 85 1053.2
20260904055440 64 202 2.0 12.0 0.00 0.02 0.00 85 1050.1
20260904054941 64 247 6.0 12.0 0.00 0.02 0.00 85 1031.1
20260904054839 64 202 3.0 12.0 0.00 0.02 0.00 85 1051.9
20260904054440 64 247 6.0 8.0 0.00 0.02 0.00 85 1051.8
20260904053940 63 225 6.0 10.0 0.00 0.02 0.00 85 1040.6
20260904053440 63 225 4.0 8.0 0.00 0.02 0.00 84 1043.7
20260904052940 63 225 8.0 9.0 0.00 0.02 0.00 84 1037.5
20260904052456 63 247 6.0 10.0 0.00 0.02 0.00 84 1021.1
20260904052440 63 202 5.0 10.0 0.00 0.02 0.00 84 1043.8
20260904051940 63 247 6.0 10.0 0.00 0.02 0.00 84 1021.1
20260904051539 62 225 4.0 10.0 0.00 0.02 0.00 84 1034.3
20260904051440 62 202 10.0 10.0 0.00 0.02 0.00 84 1043.8
20260904050940 62 225 8.0 10.0 0.00 0.02 0.00 84 1024.8
20260904050440 62 202 3.0 8.0 0.00 0.02 0.00 84 1046.9
20260904045940 62 225 8.0 9.0 0.00 0.02 0.00 83 1044.3
20260904045440 62 202 7.0 9.0 0.00 0.02 0.00 83 1002.5
20260904044940 62 225 2.0 9.0 0.00 0.02 0.00 83 1044.9
20260904044440 62 247 3.0 10.0 0.00 0.02 0.00 83 1036.6
20260904044239 62 247 9.0 10.0 0.00 0.02 0.00 83 1043.8
20260904043940 62 225 4.0 9.0 0.00 0.02 0.00 83 1017.9
20260904043440 62 247 5.0 10.0 0.00 0.02 0.00 83 1046.8
20260904042940 62 225 10.0 10.0 0.00 0.02 0.00 83 1063.2
20260904042440 62 247 5.0 10.0 0.00 0.02 0.00 83 1057.5
20260904041940 62 247 4.0 9.0 0.00 0.02 0.00 83 1062.7
20260904041440 62 247 6.0 11.0 0.00 0.02 0.00 83 1042.2
20260904040939 61 225 4.0 12.0 0.00 0.02 0.00 83 1062.7
20260904040440 61 270 3.0 7.0 0.00 0.02 0.00 83 1035.1
20260904035940 61 180 3.0 9.0 0.00 0.02 0.00 82 1033.7
20260904035440 61 225 5.0 7.0 0.00 0.02 0.00 82 1075.2
20260904034940 61 180 5.0 8.0 0.00 0.02 0.00 82 986.9
20260904034440 61 225 2.0 8.0 0.00 0.02 0.00 82 1033.4
20260904033940 61 202 8.0 9.0 0.00 0.02 0.00 81 1067.6
20260904033639 61 202 2.0 9.0 0.00 0.02 0.00 81 1055.4
20260904033440 61 225 6.0 9.0 0.00 0.02 0.00 81 1072.9
20260904032940 61 225 4.0 10.0 0.00 0.02 0.00 81 1037.5
20260904032440 61 202 4.0 6.0 0.00 0.02 0.00 81 1082.3
20260904031940 61 225 6.0 8.0 0.00 0.02 0.00 81 1062.7
20260904031440 61 225 3.0 6.0 0.00 0.02 0.00 81 1069.2
20260904030940 61 247 6.0 8.0 0.00 0.02 0.00 81 1088.6
20260904030440 61 202 4.0 6.0 0.00 0.02 0.00 81 1060.2
20260904030339 61 225 5.0 5.0 0.00 0.02 0.00 81 1019.3
20260904025940 61 247 2.0 7.0 0.00 0.02 0.00 81 1067.4
20260904025440 61 202 6.0 6.0 0.00 0.02 0.00 81 1060.9
20260904024940 61 225 4.0 9.0 0.00 0.02 0.00 81 1079.6
20260904024440 61 180 4.0 5.0 0.00 0.02 0.00 81 1061.1
20260904023940 61 247 4.0 6.0 0.00 0.02 0.00 81 1082.5
20260904023440 61 225 4.0 7.0 0.00 0.02 0.00 81 1030.3
20260904023039 61 202 6.0 6.0 0.00 0.02 0.00 81 1040.4
20260904022940 61 202 4.0 5.0 0.00 0.02 0.00 81 1009.9
20260904022440 61 225 5.0 6.0 0.00 0.02 0.00 81 1043.8
20260904021940 61 225 3.0 7.0 0.00 0.02 0.00 81 1022.5
20260904021440 61 180 4.0 6.0 0.00 0.02 0.00 81 1070.5
20260904020940 61 202 2.0 10.0 0.00 0.02 0.00 81 1067.4
20260904020440 61 225 3.0 7.0 0.00 0.02 0.00 81 1072.1
20260904015940 61 247 3.0 8.0 0.00 0.02 0.00 81 1038.2
20260904015739 61 202 4.0 8.0 0.00 0.02 0.00 81 1042.2
20260904015440 61 180 3.0 8.0 0.00 0.02 0.00 81 1067.0
20260904014940 61 202 4.0 6.0 0.00 0.02 0.00 81 1076.5
20260904014440 61 202 4.0 6.0 0.00 0.02 0.00 81 1065.2
20260904014036 61 180 6.0 6.0 0.00 0.02 0.00 81 1086.3
20260904013940 61 180 6.0 6.0 0.00 0.02 0.00 81 1086.3
20260904013440 61 157 6.0 9.0 0.00 0.02 0.00 81 1077.0
20260904012940 61 225 6.0 7.0 0.00 0.02 0.00 81 1086.2
20260904012439 61 202 1.0 7.0 0.00 0.02 0.00 81 1056.4
20260904011940 61 157 2.0 7.0 0.00 0.02 0.00 80 1055.9
20260904011440 61 180 3.0 6.0 0.00 0.02 0.00 80 1085.5
20260904010940 61 180 4.0 7.0 0.00 0.02 0.00 80 1072.1
20260904010440 61 157 6.0 9.0 0.00 0.02 0.00 80 1073.7
20260904005940 61 202 2.0 7.0 0.00 0.02 0.00 80 1068.9
20260904005441 61 180 6.0 8.0 0.00 0.02 0.00 80 1059.5
20260904005139 61 135 5.0 8.0 0.00 0.02 0.00 80 1059.5
20260904004940 61 157 5.0 8.0 0.00 0.02 0.00 80 1010.1
20260904004440 61 157 5.0 6.0 0.00 0.02 0.00 79 1057.9
20260904003941 62 180 0.0 5.0 0.00 0.02 0.00 79 1039.7
20260904003440 62 202 5.0 7.0 0.00 0.02 0.00 79 1020.9
20260904002940 62 202 3.0 5.0 0.00 0.02 0.00 79 1049.7
20260904002441 62 225 4.0 7.0 0.00 0.02 0.00 79 1073.3
20260904001940 62 157 3.0 7.0 0.00 0.02 0.00 79 1054.8
20260904001839 62 157 7.0 7.0 0.00 0.02 0.00 79 1061.1
20260904001440 62 157 4.0 5.0 0.00 0.02 0.00 79 1028.7
20260904000940 62 157 3.0 5.0 0.00 0.02 0.00 79 1070.5
20260904000440 62 112 3.0 6.0 0.00 0.02 0.00 78 1070.2
20260903235940 62 157 3.0 8.0 0.00 0.02 0.00 78 1056.4
20260903235441 62 180 1.0 4.0 0.00 0.02 0.00 78 1071.7
20260903234941 63 157 2.0 6.0 0.02 0.02 0.00 78 1050.1
20260903234540 63 180 1.0 4.0 0.02 0.02 0.00 78 1084.7
20260903234441 63 157 3.0 4.0 0.02 0.02 0.00 78 1070.5
20260903233941 63 157 4.0 6.0 0.02 0.02 0.00 77 1075.2
20260903233440 63 157 6.0 6.0 0.02 0.02 0.00 77 1072.1
20260903232940 63 157 3.0 5.0 0.02 0.02 0.00 77 1030.3
20260903232441 63 157 3.0 6.0 0.02 0.02 0.00 76 1067.4
20260903231940 63 157 4.0 6.0 0.02 0.02 0.00 75 1090.9
20260903231441 63 157 2.0 5.0 0.02 0.02 0.00 74 1062.7
20260903231240 63 157 5.0 7.0 0.02 0.02 0.00 74 1062.7
20260903230941 64 157 4.0 7.0 0.02 0.02 0.00 73 1053.2
20260903230441 64 157 7.0 8.0 0.02 0.02 0.00 72 1035.0
20260903225941 64 180 6.0 9.0 0.02 0.02 0.00 71 985.4
20260903225441 65 180 6.0 9.0 0.00 0.00 0.00 71 1062.7
20260903224941 65 202 8.0 12.0 0.00 0.00 0.00 70 1016.2
20260903224441 65 202 9.0 10.0 0.00 0.00 0.00 70 1019.3
20260903223940 65 202 10.0 10.0 0.00 0.00 0.00 70 1026.6
20260903223441 65 202 5.0 11.0 0.00 0.00 0.00 70 1086.2
20260903222941 65 225 5.0 6.0 0.00 0.00 0.00 70 1050.1
20260903222441 65 202 3.0 8.0 0.00 0.00 0.00 71 1028.8
20260903221941 65 157 3.0 3.0 0.00 0.00 0.00 71 1058.0
20260903221441 65 225 1.0 3.0 0.00 0.00 0.00 71 1017.7
20260903220941 65 157 1.0 5.0 0.00 0.00 0.00 70 1021.8
20260903220640 65 202 5.0 6.0 0.00 0.00 0.00 71 1075.2
20260903220441 65 180 3.0 6.0 0.00 0.00 0.00 70 1078.4
20260903215941 65 202 2.0 6.0 0.00 0.00 0.00 70 993.3
20260903215441 65 225 3.0 5.0 0.00 0.00 0.00 70 1088.9
20260903214941 65 180 4.0 6.0 0.00 0.00 0.00 70 1067.4
20260903214441 65 180 4.0 7.0 0.00 0.00 0.00 69 1067.4
20260903213941 66 135 3.0 5.0 0.00 0.00 0.00 69 1065.8
20260903213441 66 202 3.0 5.0 0.00 0.00 0.00 69 1065.5
20260903213340 66 202 2.0 5.0 0.00 0.00 0.00 69 1029.4
20260903212941 66 225 3.0 8.0 0.00 0.00 0.00 69 1017.8
20260903212441 65 202 3.0 6.0 0.00 0.00 0.00 69 1031.2
20260903211941 65 202 2.0 7.0 0.00 0.00 0.00 69 1065.8
20260903211441 65 180 2.0 8.0 0.00 0.00 0.00 69 1053.2
20260903210941 65 180 4.0 4.0 0.00 0.00 0.00 69 1065.8
20260903210441 66 157 2.0 8.0 0.00 0.00 0.00 68 1062.7
20260903210040 66 202 2.0 6.0 0.00 0.00 0.00 68 1050.1
20260903205941 66 157 2.0 6.0 0.00 0.00 0.00 68 1013.0
20260903205441 66 157 3.0 5.0 0.00 0.00 0.00 68 1052.9
20260903204941 66 157 4.0 5.0 0.00 0.00 0.00 68 1056.4
20260903204441 66 202 4.0 5.0 0.00 0.00 0.00 68 1073.7
20260903203941 66 180 2.0 5.0 0.00 0.00 0.00 68 1033.5
20260903203441 66 180 4.0 5.0 0.00 0.00 0.00 68 1081.5
20260903202941 66 157 2.0 4.0 0.00 0.00 0.00 68 1091.0
20260903202740 66 180 2.0 4.0 0.00 0.00 0.00 68 1050.1
20260903202441 66 202 3.0 5.0 0.00 0.00 0.00 68 1067.4
20260903201941 66 225 5.0 5.0 0.00 0.00 0.00 68 1070.5
20260903201441 66 202 3.0 4.0 0.00 0.00 0.00 68 1067.5
20260903200941 66 157 0.0 5.0 0.00 0.00 0.00 68 1027.2
20260903200441 66 180 2.0 5.0 0.00 0.00 0.00 67 1077.8